Charlotte, NC

7:58 PM EDT on April 29, 2017 (GMT -0400)
Charlotte-Douglas International

Weather History for KCLT - January, 2015

Change the Weather History Date:

Friday, January 16, 2015

  Actual Average Record
Temperature  
Mean Temperature 43 °F 40 °F  
Max Temperature 56 °F 50 °F 74 °F (1974)
Min Temperature 30 °F 29 °F 5 °F (1893)
Degree Days  
Heating Degree Days 22 25  
Month to date heating degree days 425 400  
Since 1 July heating degree days 1673 1737  
Cooling Degree Days 0 0  
Month to date cooling degree days 0 0  
Year to date cooling degree days 0 0  
Moisture  
Dew Point 30 °F    
Average Humidity 65    
Maximum Humidity 100    
Minimum Humidity 30    
Precipitation  
Precipitation 0.00 in 0.11 in 1.69 in (1954)
Month to date precipitation 1.73 1.80  
Year to date precipitation 1.73 1.80  
Snow  
Snow 0.00 in 0.10 in 10.00 in (1965)
Month to date snowfall 0.0 1.0  
Since 1 July snowfall T 1.4  
Snow Depth 0.00 in    
Sea Level Pressure  
Sea Level Pressure 30.12 in    
Wind  
Wind Speed 4 mph (WNW)    
Max Wind Speed 12 mph    
Max Gust Speed 17 mph    
Visibility 5 miles    
Events Fog    
T = Trace of Precipitation, MM = Missing Value Source: NWS Daily Summary

Daily Weather History Graph

Daily Weather History Graph

Search for Another Location

Airport or City:

Trip Planner

Search our weather history database for the weather conditions in past years. The results will help you decide how hot, cold, wet, or windy it might be!

Date:

Astronomy

Jan. 16, 2015 Rise Set
Actual Time 7:31 AM EST 5:35 PM EST
Civil Twilight 7:04 AM EST 6:03 PM EST
Nautical Twilight 6:32 AM EST 6:34 PM EST
Astronomical Twilight 6:02 AM EST 7:04 PM EST
Moon 3:27 AM EST (1/16) 2:08 PM EST (1/16)
Length of Visible Light 10h 59m
Length of Day
10h 04m
Waning Crescent, 19% of the Moon is Illuminated
Jan 16
Waning Crescent
Jan 20
New
Jan 26
First Quarter
Feb 3
Full
Feb 11
Last Quarter

Hourly Weather History & Observations

Time (EST) Temp. Windchill Dew Point Humidity Pressure Visibility Wind Dir Wind Speed Gust Speed Precip Events Conditions
12:50 AM 35.6 °F - 33.8 °F 93% 30.07 in 6.0 mi Calm Calm - N/A   Scattered Clouds
12:52 AM 35.1 °F - 33.1 °F 92% 30.08 in 6.0 mi Calm Calm - N/A   Scattered Clouds
1:02 AM 35.6 °F - 33.8 °F 93% 30.06 in 5.0 mi Calm Calm - N/A   Mostly Cloudy
1:37 AM 35.6 °F 30.7 °F 33.8 °F 93% 30.07 in 5.0 mi West 5.8 mph - N/A   Mostly Cloudy
1:52 AM 37.0 °F - 35.1 °F 93% 30.09 in 3.0 mi Calm Calm - N/A   Overcast
2:02 AM 37.4 °F 33.8 °F 35.6 °F 93% 30.07 in 0.5 mi West 4.6 mph - N/A Fog Fog
2:19 AM 35.6 °F 31.7 °F 33.8 °F 93% 30.07 in 0.5 mi West 4.6 mph - N/A Fog Fog
2:52 AM 36.0 °F 32.1 °F 34.0 °F 93% 30.08 in 0.2 mi West 4.6 mph - N/A Fog Fog
3:00 AM 35.6 °F 32.8 °F 33.8 °F 93% 30.07 in 0.2 mi West 3.5 mph - N/A Fog Fog
3:52 AM 36.0 °F 33.3 °F 34.0 °F 93% 30.07 in 0.5 mi NW 3.5 mph - N/A Fog Fog
4:37 AM 35.6 °F - 33.8 °F 93% 30.06 in 0.2 mi Calm Calm - N/A Fog Fog
4:52 AM 35.1 °F 30.1 °F 33.1 °F 92% 30.08 in 0.5 mi West 5.8 mph - N/A Fog Fog
5:43 AM 33.8 °F - 32.0 °F 93% 30.07 in 0.5 mi Calm Calm - N/A Fog Fog
5:52 AM 34.0 °F 31.0 °F 32.0 °F 92% 30.08 in 0.5 mi West 3.5 mph - N/A Fog Fog
6:10 AM 33.8 °F - 32.0 °F 93% 30.07 in 0.1 mi Calm Calm - N/A Fog Fog
6:52 AM 32.0 °F 28.7 °F 30.9 °F 96% 30.10 in 0.1 mi WSW 3.5 mph - N/A Fog Fog
7:41 AM 32.0 °F 28.7 °F 30.2 °F 93% 30.11 in 0.0 mi WNW 3.5 mph - N/A Fog Fog
7:52 AM 30.9 °F - 30.0 °F 96% 30.12 in 0.0 mi Calm Calm - N/A Fog Light Freezing Fog
8:19 AM 30.2 °F - 30.2 °F 100% 30.11 in 0.2 mi Calm Calm - N/A Fog Light Freezing Fog
8:52 AM 32.0 °F - 30.9 °F 96% 30.14 in 0.5 mi Calm Calm - N/A   Mist
9:07 AM 32.0 °F - 30.2 °F 93% 30.13 in 0.2 mi Calm Calm - N/A Fog Fog
9:28 AM 33.8 °F - 32.0 °F 93% 30.14 in 0.5 mi Calm Calm - N/A Fog Fog
9:33 AM 33.8 °F - 33.8 °F 100% 30.14 in 5.0 mi Calm Calm - N/A   Mostly Cloudy
9:52 AM 35.1 °F - 33.1 °F 92% 30.16 in 5.0 mi Calm Calm - N/A   Mostly Cloudy
10:02 AM 35.6 °F - 33.8 °F 93% 30.15 in 5.0 mi Calm Calm - N/A   Scattered Clouds
10:52 AM 42.1 °F 40.2 °F 32.0 °F 67% 30.16 in 10.0 mi WNW 3.5 mph - N/A   Scattered Clouds
11:52 AM 46.9 °F - 32.0 °F 56% 30.14 in 10.0 mi WSW 6.9 mph - N/A   Partly Cloudy
12:52 PM 52.0 °F - 30.9 °F 45% 30.12 in 10.0 mi Variable 4.6 mph - N/A   Partly Cloudy
1:52 PM 55.0 °F - 27.0 °F 34% 30.10 in 10.0 mi WNW 8.1 mph - N/A   Clear
2:52 PM 55.0 °F - 25.0 °F 31% 30.10 in 10.0 mi Variable 5.8 mph - N/A   Clear
3:52 PM 55.9 °F - 25.0 °F 30% 30.11 in 10.0 mi Variable 4.6 mph - N/A   Clear
4:52 PM 54.0 °F - 24.1 °F 31% 30.12 in 10.0 mi NW 9.2 mph - N/A   Clear
5:52 PM 51.1 °F - 24.1 °F 35% 30.14 in 10.0 mi NW 3.5 mph - N/A   Clear
6:52 PM 48.9 °F - 24.1 °F 38% 30.16 in 10.0 mi NW 3.5 mph - N/A   Clear
7:52 PM 42.1 °F 40.2 °F 25.0 °F 51% 30.18 in 10.0 mi NNW 3.5 mph - N/A   Clear
8:52 PM 43.0 °F 41.3 °F 25.0 °F 49% 30.20 in 10.0 mi North 3.5 mph - N/A   Clear
9:52 PM 41.0 °F - 26.1 °F 55% 30.22 in 10.0 mi Calm Calm - N/A   Clear
10:52 PM 34.0 °F 31.0 °F 26.1 °F 73% 30.24 in 10.0 mi NNW 3.5 mph - N/A   Clear
11:52 PM 35.1 °F 32.2 °F 27.0 °F 72% 30.24 in 10.0 mi North 3.5 mph - N/A   Clear